sat.trackr.live / text

‹ back to catalog

STARLINK-2383

NORAD 47802 · 2021-018R

PAYLOAD ACTIVE UNKNOWN

§ Identity

Operator
Country
US
Launch date
2021-03-11
Launch site
AFETR
Launch vehicle
Mass (kg)
RCS (m²)

Purposes: comms

External: N2YO · Heavens-Above · Gunter

§ Orbital elements

Epoch: 2026-05-24T17:34:33.924576Z

Period
94.10 min
Inclination
53.1618°
Eccentricity
0.0001203
Mean motion
15.30210464 rev/d
Perigee alt
474.4 km
Apogee alt
476.0 km
Semi-major
6,853.3 km
B*
5.3993e-5
RAAN
262.1419°
Arg perigee
77.8874°
Mean anomaly
282.2262°
Rev number
28,819

§ Raw data

STARLINK-23831 47802U 21018R   26144.73233709  .00001241  00000+0  53993-4 0  99942 47802  53.1618 262.1419 0001203  77.8874 282.2262 15.30210464288197

JSON: /api/v1/satellites/47802 · /tle

For live sub-satellite position, see the globe view (requires WebGL).

§ Visibility from observer

Set your observer location to see the next 7 days of passes ≥ 10°. The values pass through the URL so the page stays shareable.

No JS? Fill the form by hand. The geolocation button needs JavaScript.